Regional Weather Roundup
Issued by NWS

Home | Current Version | Previous Version | Graphics & Text | Print | Product List | Glossary On
Versions: 1 2 3 4 5 6 7 8 9 10 11 12 13 14 15 16 17 18 19 20 21 22 23 24 25 26 27 28 29 30 31 32 33 34 35 36 37 38 39 40 41 42 43 44 45 46 47 48 49 50
000
ASUS45 KCYS 270310
RWRWY

WYOMING REGIONAL WEATHER ROUNDUP
NATIONAL WEATHER SERVICE CHEYENNE WY
900 PM MDT WED APR 26 2017

NOTE:  "FAIR" INDICATES FEW OR NO CLOUDS BELOW 12,000 FEET
WITH NO SIGNIFICANT WEATHER AND/OR OBSTRUCTIONS TO VISIBILITY.

WYZ001-270400-
YELLOWSTONE NATIONAL PARK

CITY           SKY/WX    TMP DP  RH WIND       PRES   REMARKS
LK YELLOWSTONE   N/A     28  28 100 CALM      29.67F
W YELLOWSTONE  NOT AVBL

$$
WYZ002>013-054>058-071-098>099-270400-
NORTHERN WYOMING

CITY           SKY/WX    TMP DP  RH WIND       PRES   REMARKS
JACKSON        LGT RAIN  36  36 100 SW6       29.66F WCI  31
CODY           FAIR      43  37  79 NW7       29.62R
GREYBULL       CLOUDY    47  36  65 CALM      29.60S
WORLAND        FAIR      44  39  82 CALM      29.60S
SHERIDAN       FAIR      33  29  85 NW7       29.64F WCI  27
BUFFALO        FAIR      35  31  85 S7        29.65F WCI  29
GILLETTE       FAIR      33  32  96 CALM      29.67S
HULETT         FAIR      32  30  93 E3        29.69F
NEWCASTLE      FAIR      36  32  87 SE7       29.70R WCI  30

$$
WYZ014>020-022>026-101>103-270400-
CENTRAL WYOMING

CITY           SKY/WX    TMP DP  RH WIND       PRES   REMARKS
BIG PINEY      CLOUDY    39  30  70 SW8       29.68F WCI  33
PINEDALE       CLOUDY    36  30  80 N6        29.69F WCI  31
DUBOIS         CLOUDY    34  28  80 N5        29.64S WCI  30
LANDER         CLOUDY    48  20  32 SW9       29.60F
RIVERTON       FAIR      45  33  63 CALM      29.61F
CASPER         FAIR      40  35  83 E9        29.66F WCI  34
DOUGLAS        CLOUDY    43  35  73 SE10      29.66R

$$
WYZ021-027>030-104>119-270400-
SOUTHERN WYOMING

CITY           SKY/WX    TMP DP  RH WIND       PRES   REMARKS
EVANSTON       FOG       33  33 100 SW13      29.73F VSB 1/4 WCI  24
KEMMERER       FLURRIES  34  32  93 SW13      29.72S WCI  25
FORT BRIDGER   CLOUDY    37  37 100 SW12      29.75F WCI  29
ROCK SPRINGS   FAIR      40  28  62 W12       29.71F WCI  33
DIXON            N/A     41  33  74 SE3       29.76F
RAWLINS        FAIR      38  32  79 SW13      29.71S WCI  30
SARATOGA       CLOUDY    36  32  87 SW7       29.74S WCI  30
LARAMIE        FAIR      31  30  96 S7        29.72F WCI  24
CHEYENNE       MOCLDY    40  31  70 W12       29.73R WCI  33
TORRINGTON     CLOUDY    44  39  82 SE6       29.69R
PINE BLUFFS    CLOUDY    41  37  87 S3        29.72R

$$



USA.gov is the U.S. government's official web portal to all federal, state and local government web resources and services.